Location: Mahannah Oil Field
(37.4664°N, 96.6003°W)
Time: 02:24:38
(UTC+00:00)

deb Explorer IX - Pass Details

Date: 28 January 2021
Orbit: 537 x 1102 km, 38.8° (Epoch: 01 March)

Event Time Altitude Azimuth Distance (km) Brightness Sun altitude
Rises 19:42:16 0° 196° (SSW) 3,890 ? 32.6°
Reaches altitude 10° 19:46:07 10° 177° (S) 2,945 ? 32.4°
Maximum altitude 19:50:30 17° 140° (SE) 2,439 ? 32.1°
Drops below altitude 10° 19:54:47 10° 102° (ESE) 2,875 ? 31.8°
Sets 19:58:27 0° 84° (E) 3,758 ? 31.5°
